This is the latest recevied weather packets stored in our database for station/object IW1QLH-13. If no packets are shown the sender has not sent any weather packets the latest 10 day(s).
| Time | Temp. | Humidity | Pressure | Rain* | Wind** | Luminosity | Snow |
|---|---|---|---|---|---|---|---|
| 1788258309 | 32.78° C | 11% | - | - | - | 900 W/m² | - |
| 1788257697 | 31.67° C | 11% | - | - | - | 858 W/m² | - |
| 1788257085 | 31.67° C | 11% | - | - | - | 815 W/m² | - |
| 1788256472 | 30.56° C | 11% | - | - | - | 786 W/m² | - |
| 1788255860 | 30.56° C | 11% | - | - | - | 743 W/m² | - |
| 1788255245 | 30.56° C | 11% | - | - | - | 729 W/m² | - |
| 1788254633 | 31.67° C | 11% | - | - | - | 543 W/m² | - |
| 1788254022 | 31.67° C | 11% | - | - | - | 328 W/m² | - |
| 1788253410 | 31.67° C | 11% | - | - | - | 200 W/m² | - |
| 1788252798 | 30.56° C | 11% | - | - | - | 200 W/m² | - |
| 1788252187 | 32.78° C | 11% | - | - | - | 486 W/m² | - |
| 1788251576 | 28.89° C | 11% | - | - | - | 271 W/m² | - |
| 1788250965 | 28.89° C | 11% | - | - | - | 500 W/m² | - |
| 1788250353 | 27.78° C | 11% | - | - | - | 128 W/m² | - |
| 1788249741 | 30° C | 11% | - | - | - | 157 W/m² | - |
| 1788249129 | 28.89° C | 11% | - | - | - | 143 W/m² | - |
| 1788248518 | 30° C | 11% | - | - | - | 143 W/m² | - |
| 1788247415 | 27.78° C | 11% | - | - | - | 128 W/m² | - |
| 1788246804 | 27.78° C | 11% | - | - | - | 157 W/m² | - |
| 1788246192 | 27.78° C | 11% | - | - | - | 171 W/m² | - |
| 1788245454 | 26.67° C | 11% | - | - | - | 85 W/m² | - |
| 1788244779 | 26.67° C | 11% | - | - | - | 57 W/m² | - |
| 1788243981 | 25.56° C | 11% | - | - | - | 57 W/m² | - |
| 1788243368 | 23.89° C | 11% | - | - | - | 57 W/m² | - |
| 1788242756 | 22.78° C | 11% | - | - | - | 42 W/m² | - |
* Rain since midnight (hover to see other rain measurements)
** Current wind speed in m/s (hover to see current wind gust speed)